Regional Weather Roundup
Issued by NWS

Home | Current Version | Previous Version | Graphics & Text | Print | Product List | Glossary On
Versions: 1 2 3 4 5 6 7 8 9 10 11 12 13 14 15 16 17 18 19 20 21 22 23 24 25 26 27 28 29 30 31 32 33 34 35 36 37 38 39 40 41 42 43 44 45 46 47 48 49 50
000
ASUS43 KLSX 252010
RWRMO

WEATHER SUMMARY FOR MISSOURI
NATIONAL WEATHER SERVICE SPRINGFIELD MO
300 PM CDT SAT MAR 25 2017

NOTE: "FAIR" INDICATES FEW OR NO CLOUDS BELOW 12,000 FEET WITH NO
       SIGNIFICANT WEATHER AND/OR OBSTRUCTIONS TO VISIBILITY.
       CURRENT SKY AND/OR WEATHER CONDITIONS ARE NOT AVAILABLE FOR
       CHILLICOTHE AND FARMINGTON.

MOZ001>031-035>038-043-044-053-054-252100-
...NORTHERN AND WESTERN MISSOURI...

CITY           SKY/WX    TMP DP  RH WIND       PRES   REMARKS
KANSAS CTY INT CLOUDY    52  49  89 N10       29.83F
KANSAS C DTWN  CLOUDY    56  52  86 N12       29.81F
LEE`S SUMMIT   CLOUDY    58  53  84 N12       29.80F
ST JOSEPH      CLOUDY    49  46  90 N10       29.87S
CHILLICOTHE      N/A     55  50  83 N9        29.84F
KIRKSVILLE     CLOUDY    50  50 100 N13       29.84F FOG

$$
MOZ066>068-077>081-088>096-101>105-252100-
...SOUTHWEST MISSOURI...

CITY           SKY/WX    TMP DP  RH WIND       PRES   REMARKS
SPRINGFIELD    CLOUDY    52  50  93 W15       29.82S
JOPLIN         CLOUDY    49  46  90 W15       29.87S
BRANSON        CLOUDY    50  50 100 W12G18    29.86R

$$
MOZ032>034-039>042-045>050-055>058-069>072-252100-
...CENTRAL MISSOURI...

CITY           SKY/WX    TMP DP  RH WIND       PRES   REMARKS
COLUMBIA       CLOUDY    59  57  93 E8        29.78F
JEFFERSON CITY HVY RAIN  61  56  83 CALM      29.78F
ROLLA          LGT RAIN  59  56  89 SE14      29.77S
SEDALIA        CLOUDY    61  52  72 CALM      29.80F
WHITEMAN AFB   CLOUDY    61  59  94 SE5       29.77F
WARRENSBURG    CLOUDY    59  52  77 N10       29.79F
OSAGE BEACH    CLOUDY   N/A N/A N/A W3        29.78F

$$
MOZ051-052-059>065-252100-
...EAST CENTRAL MISSOURI...

CITY           SKY/WX    TMP DP  RH WIND       PRES   REMARKS
ST LOUIS INTL  CLOUDY    65  56  72 SE18      29.83F
SPIRIT OF STL  CLOUDY    64  58  80 SE13      29.81F
ST CHARLES     CLOUDY    63  58  83 S14       29.82F

$$
MOZ072>076-082>087-097>100-106>115-252100-
...SOUTH CENTRAL AND SOUTHEAST MISSOURI...

CITY           SKY/WX    TMP DP  RH WIND       PRES   REMARKS
CAPE GIRARDEAU CLOUDY    63  58  83 S16G24    29.87F
FARMINGTON     CLOUDY    63  57  82 S16       29.83F
POPLAR BLUFF   PTSUNNY   65  60  84 S18G29    29.83F
WEST PLAINS    CLOUDY    62  55  77 SW12G20   29.80F

$$




USA.gov is the U.S. government's official web portal to all federal, state and local government web resources and services.